[[{"header":{"parameterUnit":"m.s-1","parameterCategory":2,"la1":30.2992,"la2":30.254,"lo1":-89.0895,"lo2":-89.0443,"dy":0.0025,"dx":0.0025,"nx":19,"ny":19,"refTime":"2026-05-01T03:00:00:Z","depth":"0","parameterNumber":2,"parameterNumberName":"U-component_of_CURRENTS"},"data":[0,0,0,-0.2873,-0.2876,-0.3003,-0.3004,-0.3056,-0.3056,0,0,0,0,0,0,0,0,0,0,0,-0.2828,-0.2828,-0.2873,-0.2876,-0.3003,-0.3004,-0.3056,-0.3056,0,0,0,0,0,0,0,0,0,0,0,-0.2827,-0.2828,-0.2829,-0.2877,-0.3003,-0.3004,-0.3056,-0.2989,0,0,0,0,0,0,0,0,0,0,-0.288,-0.2811,-0.2828,-0.2829,-0.2877,-0.3003,-0.3004,-0.2987,-0.2993,-0.2965,0,-0.2986,0,-0.3018,-0.3057,-0.3057,0,0,0,-0.2882,-0.2806,-0.288,-0.2829,-0.2878,-0.3003,-0.2947,-0.2991,-0.2998,-0.2973,-0.2987,-0.299,-0.3019,-0.3057,-0.3057,-0.2962,-0.2961,0,0,-0.2875,-0.2811,-0.2875,-0.2884,-0.291,-0.2943,-0.2951,-0.2997,-0.2976,-0.2987,-0.2992,-0.302,-0.3057,-0.3057,-0.2963,-0.2962,0,0,0,-0.2851,-0.2806,-0.288,-0.2881,-0.2911,-0.2947,-0.2956,-0.2974,-0.301,-0.2993,-0.302,-0.3057,-0.3057,-0.2964,-0.2963,-0.2885,0,0,0,-0.2847,-0.2793,-0.2877,-0.2835,-0.2911,-0.2948,-0.2931,-0.3008,-0.3014,-0.302,-0.3057,-0.3057,-0.2966,-0.2964,-0.289,-0.2858,0,0,0,-0.2822,-0.2788,-0.2813,-0.2832,-0.289,-0.295,-0.2988,-0.3011,-0.303,-0.3057,-0.3057,-0.2966,-0.2964,-0.2894,-0.2864,-0.2813,0,0,0,-0.2741,-0.2744,-0.2811,-0.2826,-0.2889,-0.2966,-0.2988,-0.303,-0.3053,-0.3057,-0.2965,-0.2963,-0.2895,-0.2869,-0.2817,-0.273,-0.2704,0,0,-0.2702,-0.2736,-0.2755,-0.282,-0.2865,-0.2949,-0.2935,-0.2976,-0.2993,-0.2947,-0.2946,-0.2888,-0.2865,-0.2814,-0.2581,-0.2559,0,0,0,-0.2717,-0.272,-0.2755,-0.2792,-0.2878,-0.2891,-0.2945,-0.2929,-0.2887,-0.2994,-0.2857,-0.2844,-0.2815,-0.277,-0.2752,-0.2744,-0.2951,-0.2951,-0.2951,-0.2565,-0.2643,-0.2649,-0.2738,-0.2776,-0.2832,-0.2822,-0.2792,-0.2836,-0.2778,-0.2758,-0.2634,-0.2582,-0.2568,-0.256,-0.273,-0.273,-0.273,-0.2729,-0.2498,-0.2504,-0.256,-0.2596,-0.264,-0.2638,-0.2646,-0.2658,-0.2589,-0.2636,-0.2612,-0.2661,-0.2543,-0.2542,-0.2724,-0.2725,-0.2725,-0.2726,-0.2726,-0.2414,-0.2416,-0.2451,-0.2465,-0.2456,-0.2514,-0.2467,-0.2493,-0.2501,-0.2476,-0.2448,-0.2448,-0.247,-0.2472,-0.2472,-0.2472,-0.2471,-0.2471,-0.2471,-0.2308,-0.2337,-0.2311,-0.2336,-0.2328,-0.2331,-0.2368,-0.2357,-0.234,-0.2345,-0.2344,-0.2401,-0.2556,-0.2592,-0.2464,-0.2466,-0.2466,-0.2467,-0.2467,-0.22,-0.2219,-0.2168,-0.2154,-0.2137,-0.2079,-0.2172,-0.2147,-0.2154,-0.2116,-0.2169,-0.2272,-0.2292,-0.2306,-0.2336,-0.215,-0.215,-0.215,-0.215,-0.2103,-0.2117,-0.2016,-0.1958,-0.1922,-0.1945,-0.1859,-0.19,-0.1956,-0.1962,-0.2035,-0.2069,-0.2083,-0.2095,-0.2114,-0.2142,-0.1911,-0.1911,-0.1911,-0.2,-0.1989,-0.1872,-0.184,-0.1803,-0.1777,-0.1669,-0.1718,-0.1838,-0.1906,-0.2037,-0.2047,-0.211,-0.2132,-0.2168,-0.2195,-0.2248,0,0]},{"header":{"parameterUnit":"m.s-1","parameterCategory":2,"la1":30.2992,"la2":30.254,"lo1":-89.0895,"lo2":-89.0443,"dy":0.0025,"dx":0.0025,"nx":19,"ny":19,"refTime":"2026-05-01T03:00:00:Z","depth":"0","parameterNumber":3,"parameterNumberName":"V-component_of_CURRENTS"},"data":[0,0,0,-0.0747,-0.0746,-0.0662,-0.0662,-0.0519,-0.0518,0,0,0,0,0,0,0,0,0,0,0,-0.0774,-0.0774,-0.0747,-0.0746,-0.0662,-0.0662,-0.052,-0.0518,0,0,0,0,0,0,0,0,0,0,0,-0.0774,-0.0774,-0.0773,-0.0746,-0.0663,-0.0662,-0.052,-0.0586,0,0,0,0,0,0,0,0,0,0,-0.067,-0.0703,-0.0774,-0.0773,-0.0746,-0.0663,-0.0662,-0.059,-0.0582,-0.0554,0,-0.0555,0,-0.0544,-0.051,-0.051,0,0,0,-0.0723,-0.071,-0.0696,-0.0773,-0.0745,-0.0663,-0.0694,-0.0586,-0.0577,-0.0544,-0.0553,-0.0548,-0.0541,-0.0509,-0.0509,-0.0417,-0.0417,0,0,-0.0728,-0.0743,-0.0702,-0.0691,-0.074,-0.0697,-0.0692,-0.0581,-0.0573,-0.0552,-0.0545,-0.0539,-0.0508,-0.0507,-0.0417,-0.0417,0,0,0,-0.0757,-0.0747,-0.0736,-0.0697,-0.069,-0.0695,-0.0689,-0.0577,-0.0577,-0.0543,-0.0537,-0.0508,-0.0506,-0.0417,-0.0417,-0.0491,0,0,0,-0.0758,-0.0765,-0.0738,-0.0744,-0.0693,-0.0637,-0.0688,-0.0584,-0.0572,-0.0538,-0.0508,-0.0505,-0.0417,-0.0417,-0.049,-0.0513,0,0,0,-0.0775,-0.0766,-0.0764,-0.0745,-0.0721,-0.0639,-0.063,-0.0581,-0.0569,-0.0509,-0.0505,-0.0418,-0.0417,-0.0488,-0.051,-0.0501,0,0,0,-0.0781,-0.0803,-0.0765,-0.079,-0.0722,-0.0701,-0.0631,-0.0599,-0.0557,-0.0507,-0.0417,-0.0417,-0.0487,-0.0509,-0.0499,-0.0438,-0.0439,0,0,-0.082,-0.0808,-0.0827,-0.0792,-0.0795,-0.071,-0.0687,-0.0603,-0.0539,-0.0447,-0.0445,-0.049,-0.051,-0.05,-0.0427,-0.0428,0,0,0,-0.0847,-0.0858,-0.0854,-0.0846,-0.081,-0.0748,-0.0668,-0.0616,-0.053,-0.0516,-0.0465,-0.0475,-0.0467,-0.0426,-0.0427,-0.0238,-0.0416,-0.0416,-0.0416,-0.0902,-0.0895,-0.0914,-0.089,-0.0862,-0.0769,-0.0715,-0.062,-0.0566,-0.0536,-0.0518,-0.0536,-0.0493,-0.0493,-0.0299,-0.0501,-0.0501,-0.0501,-0.0501,-0.0975,-0.0996,-0.0956,-0.0975,-0.09,-0.0863,-0.0737,-0.0684,-0.0589,-0.0549,-0.0538,-0.0484,-0.0499,-0.0291,-0.0506,-0.0505,-0.0504,-0.0504,-0.0504,-0.1035,-0.1041,-0.1047,-0.1046,-0.1003,-0.0915,-0.0858,-0.0756,-0.0652,-0.0635,-0.0547,-0.0545,-0.0374,-0.0622,-0.0622,-0.0622,-0.0622,-0.0622,-0.0622,-0.1096,-0.1098,-0.1126,-0.1114,-0.11,-0.105,-0.0922,-0.0849,-0.0696,-0.0604,-0.0603,-0.0342,-0.0571,-0.0581,-0.0624,-0.0623,-0.0623,-0.0623,-0.0623,-0.1176,-0.1176,-0.1211,-0.1216,-0.1188,-0.1151,-0.1042,-0.0844,-0.0745,-0.0652,-0.0312,-0.0569,-0.0529,-0.0526,-0.0532,-0.056,-0.056,-0.056,-0.056,-0.1221,-0.1228,-0.1263,-0.1276,-0.1266,-0.1192,-0.1064,-0.083,-0.0447,-0.0233,-0.0179,-0.0121,-0.0132,-0.0064,-0.0072,-0.0067,0.0025,0.0026,0.0027,-0.1257,-0.1259,-0.1286,-0.13,-0.1295,-0.1225,-0.1071,-0.0752,-0.0188,0.0068,0.0073,0.0048,0.0151,0.0118,0.0236,0.021,0.0222,0,0]}],[{"header":{"parameterUnit":"m.s-1","parameterCategory":2,"la1":30.2992,"la2":30.254,"lo1":-89.0895,"lo2":-89.0443,"dy":0.0025,"dx":0.0025,"nx":19,"ny":19,"refTime":"2026-05-01T03:00:00:Z","depth":"2","parameterNumber":2,"parameterNumberName":"U-component_of_CURRENTS"},"data":[0,0,0,-0.2662,-0.2665,-0.2829,-0.283,-0.2896,-0.2897,0,0,0,0,0,0,0,0,0,0,0,-0.2611,-0.2612,-0.2662,-0.2666,-0.2829,-0.283,-0.2896,-0.2897,0,0,0,0,0,0,0,0,0,0,0,-0.261,-0.2612,-0.2613,-0.2666,-0.2829,-0.283,-0.2896,-0.2809,0,0,0,0,0,0,0,0,0,0,-0.2668,-0.2607,-0.2611,-0.2613,-0.2667,-0.2829,-0.283,-0.2807,-0.2814,-0.278,0,-0.2817,0,-0.2851,-0.2898,-0.2898,0,0,0,-0.2669,-0.2601,-0.2677,-0.2614,-0.2669,-0.2829,-0.2756,-0.2812,-0.2821,-0.279,-0.2818,-0.2822,-0.2853,-0.2898,-0.2898,-0.2826,-0.2825,0,0,-0.266,-0.2605,-0.2671,-0.2683,-0.2722,-0.2751,-0.2761,-0.2819,-0.281,-0.2819,-0.2824,-0.2854,-0.2898,-0.2898,-0.2827,-0.2826,0,0,0,-0.2632,-0.2598,-0.2675,-0.2679,-0.2717,-0.2756,-0.2768,-0.2807,-0.2843,-0.2825,-0.2854,-0.2898,-0.2898,-0.2828,-0.2827,-0.2742,0,0,0,-0.2626,-0.2583,-0.2671,-0.2635,-0.2717,-0.2774,-0.2753,-0.284,-0.2848,-0.2854,-0.2898,-0.2898,-0.2829,-0.2827,-0.2747,-0.2722,0,0,0,-0.2601,-0.2578,-0.261,-0.2633,-0.2706,-0.2776,-0.2814,-0.2843,-0.2864,-0.2898,-0.2898,-0.283,-0.2828,-0.2751,-0.2728,-0.2683,0,0,0,-0.2524,-0.2542,-0.2608,-0.2632,-0.2705,-0.2786,-0.2815,-0.287,-0.29,-0.2898,-0.2829,-0.2827,-0.2752,-0.2732,-0.2687,-0.259,-0.2565,0,0,-0.2501,-0.2537,-0.2555,-0.2619,-0.2665,-0.2763,-0.2758,-0.2816,-0.2844,-0.2803,-0.2803,-0.2745,-0.2728,-0.2684,-0.2469,-0.2447,0,0,0,-0.2518,-0.2529,-0.256,-0.2601,-0.2683,-0.2708,-0.2779,-0.2772,-0.275,-0.2853,-0.2726,-0.2718,-0.2693,-0.2642,-0.2624,-0.2817,-0.2817,-0.2817,-0.2817,-0.2412,-0.2469,-0.2479,-0.2552,-0.2593,-0.2658,-0.266,-0.2651,-0.2696,-0.2652,-0.2634,-0.2524,-0.2466,-0.2452,-0.2611,-0.2611,-0.2611,-0.261,-0.261,-0.2364,-0.2365,-0.2411,-0.2443,-0.2482,-0.2491,-0.2504,-0.2523,-0.247,-0.2519,-0.2499,-0.2536,-0.2427,-0.2603,-0.2605,-0.2606,-0.2606,-0.2607,-0.2607,-0.2296,-0.2294,-0.2326,-0.2336,-0.2336,-0.2389,-0.2354,-0.2382,-0.2392,-0.2371,-0.2342,-0.2343,-0.2493,-0.237,-0.2369,-0.2369,-0.2369,-0.2368,-0.2368,-0.2202,-0.2228,-0.2206,-0.2231,-0.2225,-0.2233,-0.2273,-0.2264,-0.2245,-0.2243,-0.2243,-0.2443,-0.2451,-0.2479,-0.2363,-0.2364,-0.2364,-0.2365,-0.2365,-0.2098,-0.2118,-0.2073,-0.2062,-0.2051,-0.1993,-0.2089,-0.206,-0.207,-0.2028,-0.2164,-0.2171,-0.2195,-0.2209,-0.223,-0.2057,-0.2057,-0.2057,-0.2057,-0.2006,-0.2021,-0.1928,-0.1877,-0.1847,-0.1864,-0.1754,-0.1737,-0.1808,-0.1806,-0.1817,-0.1832,-0.185,-0.1858,-0.188,-0.1897,-0.1636,-0.1636,-0.1635,-0.1908,-0.1899,-0.179,-0.1764,-0.1733,-0.1697,-0.1536,-0.141,-0.1452,-0.1618,-0.1743,-0.2029,-0.2084,-0.2099,-0.2145,-0.2167,-0.2208,0,0]},{"header":{"parameterUnit":"m.s-1","parameterCategory":2,"la1":30.2992,"la2":30.254,"lo1":-89.0895,"lo2":-89.0443,"dy":0.0025,"dx":0.0025,"nx":19,"ny":19,"refTime":"2026-05-01T03:00:00:Z","depth":"2","parameterNumber":3,"parameterNumberName":"V-component_of_CURRENTS"},"data":[0,0,0,-0.0607,-0.0607,-0.0544,-0.0544,-0.041,-0.0409,0,0,0,0,0,0,0,0,0,0,0,-0.0629,-0.0629,-0.0607,-0.0607,-0.0545,-0.0544,-0.041,-0.0409,0,0,0,0,0,0,0,0,0,0,0,-0.0629,-0.0629,-0.0629,-0.0606,-0.0545,-0.0544,-0.041,-0.0465,0,0,0,0,0,0,0,0,0,0,-0.053,-0.0568,-0.0629,-0.0629,-0.0606,-0.0545,-0.0544,-0.0468,-0.0462,-0.043,0,-0.0439,0,-0.043,-0.0401,-0.04,0,0,0,-0.0583,-0.0574,-0.056,-0.0629,-0.0606,-0.0545,-0.0566,-0.0465,-0.0457,-0.0421,-0.0437,-0.0432,-0.0428,-0.04,-0.04,-0.0315,-0.0315,0,0,-0.0586,-0.0607,-0.0565,-0.0556,-0.0612,-0.0568,-0.0564,-0.0461,-0.046,-0.0436,-0.0429,-0.0425,-0.0399,-0.0398,-0.0315,-0.0315,0,0,0,-0.0612,-0.0609,-0.0599,-0.0561,-0.056,-0.0567,-0.0562,-0.0464,-0.0462,-0.0428,-0.0424,-0.0399,-0.0397,-0.0315,-0.0315,-0.0384,0,0,0,-0.0613,-0.0626,-0.0601,-0.061,-0.0563,-0.0519,-0.0568,-0.0469,-0.0457,-0.0425,-0.0399,-0.0396,-0.0315,-0.0315,-0.0383,-0.0402,0,0,0,-0.0628,-0.0627,-0.0628,-0.0612,-0.0596,-0.0521,-0.0512,-0.0466,-0.0456,-0.04,-0.0396,-0.0315,-0.0315,-0.0381,-0.0399,-0.0383,0,0,0,-0.0638,-0.0667,-0.0629,-0.0659,-0.0598,-0.0579,-0.0513,-0.0487,-0.0449,-0.0398,-0.0315,-0.0315,-0.038,-0.0398,-0.0382,-0.0321,-0.0321,0,0,-0.0684,-0.0673,-0.0691,-0.0656,-0.0659,-0.0584,-0.0563,-0.0489,-0.0431,-0.0341,-0.0339,-0.0383,-0.0399,-0.0383,-0.0318,-0.0318,0,0,0,-0.0711,-0.0725,-0.0719,-0.0712,-0.0676,-0.062,-0.0549,-0.0501,-0.0424,-0.0412,-0.0362,-0.0369,-0.0357,-0.0318,-0.0318,-0.0315,-0.0315,-0.0315,-0.0315,-0.0785,-0.0768,-0.0787,-0.0755,-0.0729,-0.0641,-0.059,-0.0504,-0.0456,-0.0431,-0.0411,-0.0425,-0.0384,-0.0383,-0.0398,-0.0399,-0.0399,-0.0399,-0.0399,-0.0861,-0.0879,-0.0833,-0.0849,-0.0772,-0.074,-0.0614,-0.0566,-0.0472,-0.0441,-0.0426,-0.0374,-0.0388,-0.0404,-0.0403,-0.0403,-0.0402,-0.0402,-0.0402,-0.0925,-0.0928,-0.0933,-0.0927,-0.0885,-0.0796,-0.0735,-0.0635,-0.0533,-0.0512,-0.0426,-0.0424,-0.0457,-0.0499,-0.0499,-0.0499,-0.0499,-0.0499,-0.0499,-0.0989,-0.0989,-0.1016,-0.1002,-0.0987,-0.0934,-0.0801,-0.0722,-0.0567,-0.0477,-0.0476,-0.0457,-0.0454,-0.046,-0.0499,-0.0499,-0.0499,-0.0499,-0.0499,-0.1065,-0.1067,-0.11,-0.1105,-0.107,-0.1022,-0.0912,-0.0708,-0.0605,-0.051,-0.0437,-0.0438,-0.0398,-0.0396,-0.0399,-0.042,-0.042,-0.042,-0.042,-0.111,-0.1117,-0.115,-0.1159,-0.1141,-0.1056,-0.0906,-0.0653,-0.0443,-0.0327,-0.0331,-0.031,-0.0315,-0.0268,-0.0269,-0.0269,-0.0256,-0.0256,-0.0256,-0.1144,-0.1146,-0.1171,-0.1182,-0.1167,-0.1078,-0.0889,-0.0547,-0.0255,-0.025,-0.0315,-0.0407,-0.0385,-0.0389,-0.0324,-0.0323,-0.0325,0,0]}],[{"header":{"parameterUnit":"m.s-1","parameterCategory":2,"la1":30.2992,"la2":30.254,"lo1":-89.0895,"lo2":-89.0443,"dy":0.0025,"dx":0.0025,"nx":19,"ny":19,"refTime":"2026-05-01T03:00:00:Z","depth":"4","parameterNumber":2,"parameterNumberName":"U-component_of_CURRENTS"},"data":[0,0,0,-0.1597,-0.1599,-0.1695,-0.1695,-0.1798,-0.1799,0,0,0,0,0,0,0,0,0,0,0,-0.1557,-0.1558,-0.1597,-0.1599,-0.1695,-0.1695,-0.1798,-0.1799,0,0,0,0,0,0,0,0,0,0,0,-0.1557,-0.1558,-0.1559,-0.16,-0.1695,-0.1695,-0.1798,-0.1728,0,0,0,0,0,0,0,0,0,0,-0.1637,-0.1636,-0.1558,-0.1559,-0.16,-0.1695,-0.1695,-0.1725,-0.1733,-0.1751,0,-0.177,0,-0.1794,-0.1806,-0.1806,0,0,0,-0.1592,-0.163,-0.1629,-0.1559,-0.1601,-0.1695,-0.165,-0.173,-0.1738,-0.1761,-0.1772,-0.1776,-0.1796,-0.1807,-0.1807,-0.1897,-0.1897,0,0,-0.1587,-0.1601,-0.1623,-0.1634,-0.1632,-0.1647,-0.1653,-0.1735,-0.1762,-0.1772,-0.1779,-0.1797,-0.1807,-0.1808,-0.1897,-0.1897,0,0,0,-0.1576,-0.1598,-0.1595,-0.163,-0.1653,-0.165,-0.1657,-0.1758,-0.175,-0.178,-0.1799,-0.1808,-0.1809,-0.1897,-0.1897,-0.1917,0,0,0,-0.1573,-0.1592,-0.1593,-0.1606,-0.1652,-0.1719,-0.1679,-0.1744,-0.1755,-0.1798,-0.1808,-0.181,-0.1897,-0.1897,-0.1916,-0.1923,0,0,0,-0.1552,-0.1591,-0.1596,-0.1606,-0.1648,-0.1717,-0.1715,-0.1747,-0.1766,-0.1807,-0.1811,-0.1897,-0.1897,-0.1915,-0.1922,-0.1896,0,0,0,-0.1568,-0.1597,-0.1597,-0.1637,-0.1647,-0.168,-0.1715,-0.1765,-0.1799,-0.1809,-0.1897,-0.1897,-0.1915,-0.1921,-0.1896,-0.1677,0,0,0,-0.1605,-0.1603,-0.1619,-0.1621,-0.1662,-0.1666,-0.1722,-0.1788,-0.1811,-0.1867,-0.1869,-0.1917,-0.1922,-0.1896,-0.1706,0,0,0,0,-0.163,-0.1642,-0.1653,-0.1685,-0.1698,-0.1736,-0.1779,-0.1796,-0.1861,-0.1837,-0.192,-0.1923,-0.1906,-0.1778,-0.1899,-0.1899,-0.1899,-0.1899,-0.1899,-0.1663,-0.167,-0.1702,-0.1716,-0.1747,-0.1792,-0.1818,-0.1853,-0.1871,-0.19,-0.1942,-0.1941,-0.1808,-0.1945,-0.1946,-0.1946,-0.1946,-0.1946,-0.1946,-0.1669,-0.1659,-0.1718,-0.1755,-0.1796,-0.1843,-0.1883,-0.1904,-0.1935,-0.1951,-0.1933,-0.1812,-0.1948,-0.1948,-0.1947,-0.1947,-0.1947,-0.1947,-0.1947,-0.1623,-0.1622,-0.1677,-0.1735,-0.1811,-0.1866,-0.1883,-0.1936,-0.1957,-0.1965,-0.1803,-0.1943,-0.1936,-0.1952,-0.1952,-0.1952,-0.1952,-0.1952,-0.1952,-0.1527,-0.1584,-0.1614,-0.1698,-0.1738,-0.1795,-0.1875,-0.1869,-0.1912,-0.1797,-0.1967,-0.1942,-0.1942,-0.1935,-0.1951,-0.1951,-0.1951,-0.1951,-0.1951,-0.1419,-0.1467,-0.1487,-0.153,-0.1608,-0.163,-0.175,-0.1701,-0.167,-0.1603,-0.1688,-0.1701,-0.1665,-0.1672,-0.1654,-0.1587,-0.1584,-0.1581,0,-0.1328,-0.1357,-0.1366,-0.1387,-0.1398,-0.1509,-0.1425,-0.1456,-0.1487,-0.1442,-0.1671,-0.177,-0.1777,-0.1741,-0.1742,-0.1723,0,0,0,-0.1244,-0.1263,-0.1229,-0.1279,-0.1289,-0.1295,-0.1389,-0.1332,-0.15,-0.1406,-0.1511,-0.153,-0.1798,-0.1947,-0.1924,-0.1924,-0.1911,0,0]},{"header":{"parameterUnit":"m.s-1","parameterCategory":2,"la1":30.2992,"la2":30.254,"lo1":-89.0895,"lo2":-89.0443,"dy":0.0025,"dx":0.0025,"nx":19,"ny":19,"refTime":"2026-05-01T03:00:00:Z","depth":"4","parameterNumber":3,"parameterNumberName":"V-component_of_CURRENTS"},"data":[0,0,0,-0.0297,-0.0296,-0.0261,-0.026,-0.0184,-0.0183,0,0,0,0,0,0,0,0,0,0,0,-0.0298,-0.0298,-0.0297,-0.0296,-0.0261,-0.026,-0.0184,-0.0183,0,0,0,0,0,0,0,0,0,0,0,-0.0298,-0.0298,-0.0298,-0.0296,-0.0261,-0.026,-0.0184,-0.0213,0,0,0,0,0,0,0,0,0,0,-0.025,-0.0286,-0.0298,-0.0298,-0.0296,-0.0261,-0.026,-0.0215,-0.0211,-0.0199,0,-0.0201,0,-0.0205,-0.018,-0.018,0,0,0,-0.0274,-0.0289,-0.0263,-0.0298,-0.0296,-0.0261,-0.027,-0.0213,-0.0209,-0.0194,-0.02,-0.0198,-0.0204,-0.0179,-0.0179,-0.0133,-0.0133,0,0,-0.0276,-0.0303,-0.0266,-0.0261,-0.0297,-0.0272,-0.027,-0.0211,-0.022,-0.02,-0.0196,-0.0202,-0.0179,-0.0179,-0.0133,-0.0133,0,0,0,-0.0297,-0.0305,-0.0281,-0.0264,-0.0268,-0.0271,-0.0269,-0.0223,-0.021,-0.0195,-0.0202,-0.0179,-0.0178,-0.0133,-0.0133,-0.0193,0,0,0,-0.0297,-0.0318,-0.0282,-0.03,-0.027,-0.0256,-0.0282,-0.0214,-0.0208,-0.0202,-0.0179,-0.0177,-0.0133,-0.0133,-0.0191,-0.0212,0,0,0,-0.0298,-0.032,-0.0314,-0.0301,-0.0295,-0.0257,-0.0241,-0.0212,-0.0213,-0.0179,-0.0177,-0.0133,-0.0133,-0.019,-0.021,-0.0164,0,0,0,-0.0326,-0.0351,-0.0315,-0.0344,-0.0296,-0.0282,-0.0242,-0.0232,-0.0209,-0.0178,-0.0133,-0.0133,-0.019,-0.0208,-0.0164,-0.0155,0,0,0,-0.0375,-0.0358,-0.0372,-0.0339,-0.0347,-0.0284,-0.0283,-0.0238,-0.0196,-0.0147,-0.0146,-0.0192,-0.0209,-0.0164,-0.0142,0,0,0,0,-0.0398,-0.0409,-0.0403,-0.0401,-0.0368,-0.033,-0.0285,-0.0248,-0.02,-0.0186,-0.0171,-0.0179,-0.0149,-0.0142,-0.0132,-0.0132,-0.0132,-0.0132,-0.0132,-0.0482,-0.0459,-0.0481,-0.0446,-0.0429,-0.0363,-0.0323,-0.026,-0.0228,-0.0209,-0.0213,-0.0199,-0.0195,-0.0197,-0.0197,-0.0197,-0.0197,-0.0197,-0.0198,-0.0548,-0.0552,-0.0529,-0.0546,-0.0487,-0.0474,-0.0368,-0.0327,-0.0244,-0.0232,-0.0199,-0.0188,-0.0203,-0.0202,-0.0201,-0.0201,-0.02,-0.02,-0.0199,-0.0588,-0.0586,-0.0607,-0.0618,-0.0604,-0.0537,-0.0471,-0.0393,-0.03,-0.0272,-0.0208,-0.0211,-0.0219,-0.0243,-0.0243,-0.0242,-0.0242,-0.0242,-0.0242,-0.0612,-0.0629,-0.0666,-0.068,-0.0681,-0.0643,-0.0524,-0.0436,-0.0331,-0.0257,-0.0274,-0.0213,-0.0211,-0.0219,-0.0241,-0.0241,-0.0241,-0.0241,-0.0242,-0.0638,-0.0659,-0.0701,-0.0723,-0.0715,-0.0674,-0.0588,-0.0401,-0.0298,-0.0206,-0.0221,-0.0223,-0.0184,-0.0183,-0.0188,-0.0202,-0.0202,-0.0202,0,-0.0648,-0.0664,-0.0709,-0.0729,-0.0706,-0.067,-0.0524,-0.0407,-0.0277,-0.0289,-0.0291,-0.0317,-0.0315,-0.0281,-0.0279,-0.0291,0,0,0,-0.0654,-0.0666,-0.0688,-0.0717,-0.0695,-0.0553,-0.0473,-0.0406,-0.0328,-0.0202,-0.02,-0.02,-0.0238,-0.0237,-0.0179,-0.0178,-0.0186,0,0]}]]